LEMUR-2-CARLSANTAMARI (48959 NORAD) Tracking and Keplerian Element Data

This shows tracking and keplerian element data for the satellite.

Feedback or suggestion? Click here.




ElementValue
Catalog48959
NameLEMUR-2-CARLSANTAMARI
Epoch Orbit511
Epoch Day210.6053128
Epoch Year2021
RAAN338.9951
Inclination97.5122
Eccentricity0.0018481
Argument of Perigee136.5154
Mean Anonmoly223.7539
Mean Motion15.14018449
Decay Rate2.337E-05
L11 48959U 21059CJ 21210.60531280 .00002337 00000-0 13183-3 0 9997
L22 48959 97.5122 338.9951 0018481 136.5154 223.7539 15.14018449 5113

Live tracking and technical data element details for LEMUR-2-CARLSANTAMARI (NORAD 48959). LEMUR-2-CARLSANTAMARI can be tracked NOW for your location showing map with azimuth and elevation plus other details from your city location.

Track the satellite on the map from your city or location and see movement details for azimuth, elevation, latitude, longitude, range, height, and movement on the map or in text.







IsCatalogInMostPopularTable: catalog: 48959, numindb: 1
Update: records affected: 1



GetName: 48959 LEMUR-2-CARLSANTAMARI

Hit Count: updated at: Sat, 31 Jul 2021 16:38:49 GMT